Weather in Ubeyevo

Russia / Chuvash Republic     55°42′35″N   47°08′48″E
temp.,
°C
wind,
m/s
gust,
m/s
humid.,
%
clouds,
%
prec.,
mm/h
press.,
hPa
HPBL,
m
26 july, mon
mon2600:00+12wsw33746 0.0 102130
03:00+11wsw227842 0.0 102218
06:00+15wsw256499 0.0 1022153
09:00+20w344778 0.0 1022671
12:00+23wnw5639100 0.0 10222765
15:00+22w464399 0.0 10212095
18:00+19w36566 0.0 1020173
21:00+16wsw355997 0.0 102072
27 july, tue
tue2700:00+16wsw3858100 0.0 1019168
03:00+16w4116482 0.0 1019211
06:00+16w49705 0.0 1019249
09:00+21wnw57555 0.0 1018819
12:00+24nw584846 0.0 10172007
15:00+23nw5950100 0.0 10171865
18:00+23nw465130 0.0 1016256
21:00+19nw5105898 0.0 1017344
28 july, wed
wed2800:00+14wnw378493 0.0 1017138
03:00+13wnw34945 0.0 101765
06:00+15nnw248550 0.0 1017168
09:00+20n23605 0.0 1016900
12:00+23nw34442 0.0 10151968
15:00+24nw34380 0.0 10142180
18:00+24nw12510 0.0 1013153
21:00+18s22590 0.0 101311
29 july, thu
thu2900:00+16s33675 0.0 101227
03:00+15ssw348599 0.2 101151
06:00+17ssw3881100 0.0 1010223
09:00+19sw51178100 0.1 1009476
12:00+18s4793100 2.4 1007398
15:00+18sse41092100 6.2 1004471
18:00+20wnw5987100 0.9 1003705
21:00+17w389798 0.9 1004228
30 july, fri
fri3000:00+16wsw359699 0.0 1004106
03:00+16wsw41096100 0.0 1004202
06:00+18wsw51190100 0.0 1004297
09:00+23w586799 0.0 1005689
12:00+27wnw584913 0.0 10051910
15:00+28wnw574286 0.0 10052325
18:00+24wsw356299 0.0 100581
21:00+22wsw22666 0.0 100636